EN

Hourly Weather Kyzyl-Tash

Today, 25 July, Sunday

Time Temperature Precipitation Wind Pressure Humidity
00:00 +15°C° 0 mm 1 mps 633 mmHg 89%
01:00 +14°C° 0 mm 0 mps 632 mmHg 88%
02:00 +14°C° 0 mm 0 mps 632 mmHg 87%
03:00 +14°C° 0 mm 0 mps 632 mmHg 87%
04:00 +14°C° 0 mm 0 mps 632 mmHg 86%
05:00 +14°C° 0 mm 0 mps 632 mmHg 85%
06:00 +15°C° 0 mm 0 mps 633 mmHg 85%
07:00 +16°C° 0.2 mm 0 mps 633 mmHg 80%
08:00 +19°C° 0.2 mm 1 mps 633 mmHg 76%
09:00 +20°C° 0.2 mm 1 mps 633 mmHg 72%
10:00 +21°C° 0.4 mm 1 mps 633 mmHg 67%
11:00 +22°C° 0.4 mm 1 mps 633 mmHg 62%
12:00 +23°C° 0.4 mm 1 mps 633 mmHg 58%
13:00 +23°C° 0.6 mm 2 mps 633 mmHg 58%
14:00 +23°C° 0.6 mm 2 mps 633 mmHg 58%
15:00 +23°C° 0.6 mm 2 mps 633 mmHg 57%
16:00 +23°C° 0.6 mm 2 mps 633 mmHg 62%
17:00 +21°C° 0.6 mm 2 mps 633 mmHg 66%
18:00 +20°C° 0.6 mm 2 mps 633 mmHg 70%
19:00 +19°C° 0.3 mm 2 mps 633 mmHg 75%
20:00 +18°C° 0.3 mm 1 mps 632 mmHg 80%
21:00 +16°C° 0.3 mm 1 mps 632 mmHg 85%
22:00 +16°C° 0 mm 1 mps 632 mmHg 85%
23:00 +15°C° 0 mm 1 mps 632 mmHg 86%

Tomorrow, 26 July, Monday

Time Temperature Precipitation Wind Pressure Humidity
00:00 +15°C° 0 mm 1 mps 632 mmHg 86%
01:00 +14°C° 0 mm 1 mps 631 mmHg 87%
02:00 +14°C° 0 mm 1 mps 631 mmHg 87%
03:00 +14°C° 0 mm 1 mps 631 mmHg 87%
04:00 +14°C° 0 mm 1 mps 631 mmHg 86%
05:00 +15°C° 0 mm 1 mps 631 mmHg 85%
06:00 +16°C° 0 mm 1 mps 632 mmHg 84%
07:00 +18°C° 0.1 mm 1 mps 632 mmHg 78%
08:00 +20°C° 0.1 mm 1 mps 632 mmHg 72%
09:00 +21°C° 0.1 mm 1 mps 632 mmHg 66%
10:00 +21°C° 0 mm 2 mps 632 mmHg 58%
11:00 +23°C° 0 mm 2 mps 633 mmHg 50%
12:00 +25°C° 0 mm 3 mps 633 mmHg 42%
13:00 +25°C° 0 mm 3 mps 633 mmHg 41%
14:00 +25°C° 0 mm 3 mps 632 mmHg 41%
15:00 +25°C° 0 mm 4 mps 632 mmHg 41%
16:00 +24°C° 0 mm 3 mps 632 mmHg 46%
17:00 +23°C° 0 mm 2 mps 632 mmHg 51%
18:00 +21°C° 0 mm 2 mps 632 mmHg 55%
19:00 +21°C° 0.1 mm 1 mps 631 mmHg 62%
20:00 +19°C° 0.1 mm 1 mps 631 mmHg 69%
21:00 +16°C° 0.1 mm 1 mps 631 mmHg 75%
22:00 +16°C° 0.1 mm 1 mps 631 mmHg 78%
23:00 +15°C° 0.1 mm 1 mps 630 mmHg 80%

Day after tomorrow, 27 July, Tuesday

Time Temperature Precipitation Wind Pressure Humidity
00:00 +15°C° 0.1 mm 1 mps 630 mmHg 82%
01:00 +14°C° 0 mm 1 mps 630 mmHg 83%
02:00 +14°C° 0 mm 1 mps 630 mmHg 84%
03:00 +13°C° 0 mm 1 mps 629 mmHg 85%
04:00 +14°C° 0 mm 1 mps 630 mmHg 83%
05:00 +15°C° 0 mm 1 mps 630 mmHg 81%
06:00 +16°C° 0 mm 1 mps 630 mmHg 79%
07:00 +19°C° 0 mm 1 mps 630 mmHg 70%
08:00 +20°C° 0 mm 1 mps 631 mmHg 61%
09:00 +22°C° 0 mm 1 mps 631 mmHg 52%
10:00 +23°C° 0.1 mm 1 mps 631 mmHg 49%
11:00 +23°C° 0.1 mm 1 mps 630 mmHg 45%
12:00 +24°C° 0.1 mm 1 mps 630 mmHg 42%
13:00 +24°C° 0.1 mm 2 mps 630 mmHg 44%
14:00 +24°C° 0.1 mm 3 mps 630 mmHg 46%
15:00 +22°C° 0.1 mm 4 mps 629 mmHg 48%
16:00 +21°C° 0.6 mm 3 mps 629 mmHg 54%
17:00 +20°C° 0.6 mm 3 mps 629 mmHg 60%
18:00 +19°C° 0.6 mm 2 mps 629 mmHg 66%
19:00 +18°C° 0.7 mm 2 mps 629 mmHg 73%
20:00 +16°C° 0.7 mm 2 mps 629 mmHg 80%
21:00 +15°C° 0.7 mm 1 mps 629 mmHg 88%
22:00 +14°C° 0.5 mm 2 mps 629 mmHg 89%
23:00 +14°C° 0.5 mm 2 mps 629 mmHg 91%

28 July, Wednesday

Time Temperature Precipitation Wind Pressure Humidity
00:00 +13°C° 0.5 mm 2 mps 629 mmHg 93%
01:00 +13°C° 0.1 mm 2 mps 629 mmHg 93%
02:00 +13°C° 0.1 mm 1 mps 629 mmHg 94%
03:00 +13°C° 0.1 mm 1 mps 629 mmHg 95%
04:00 +13°C° 0 mm 1 mps 629 mmHg 95%
05:00 +13°C° 0 mm 1 mps 629 mmHg 94%
06:00 +13°C° 0 mm 1 mps 629 mmHg 94%
07:00 +14°C° 0.1 mm 1 mps 629 mmHg 88%
08:00 +15°C° 0.1 mm 1 mps 629 mmHg 82%
09:00 +15°C° 0.1 mm 1 mps 629 mmHg 76%
10:00 +16°C° 0.2 mm 2 mps 630 mmHg 70%
11:00 +17°C° 0.2 mm 2 mps 630 mmHg 64%
12:00 +18°C° 0.2 mm 2 mps 630 mmHg 58%
13:00 +19°C° 0.3 mm 3 mps 630 mmHg 58%
14:00 +19°C° 0.3 mm 3 mps 630 mmHg 58%
15:00 +19°C° 0.3 mm 3 mps 630 mmHg 57%
16:00 +18°C° 0.3 mm 3 mps 630 mmHg 59%
17:00 +18°C° 0.3 mm 3 mps 630 mmHg 61%
18:00 +17°C° 0.3 mm 2 mps 630 mmHg 63%
19:00 +16°C° 0.1 mm 2 mps 630 mmHg 71%
20:00 +14°C° 0.1 mm 2 mps 630 mmHg 79%
21:00 +12°C° 0.1 mm 1 mps 630 mmHg 87%
22:00 +12°C° 0 mm 1 mps 630 mmHg 88%
23:00 +12°C° 0 mm 1 mps 630 mmHg 88%

29 July, Thursday

Time Temperature Precipitation Wind Pressure Humidity
00:00 +11°C° 0 mm 1 mps 630 mmHg 89%
01:00 +10°C° 0 mm 0 mps 629 mmHg 90%
02:00 +10°C° 0 mm 0 mps 629 mmHg 90%
03:00 +9°C° 0 mm 0 mps 629 mmHg 91%
04:00 +10°C° 0 mm 0 mps 629 mmHg 89%
05:00 +10°C° 0 mm 0 mps 630 mmHg 87%
06:00 +11°C° 0 mm 0 mps 630 mmHg 84%
07:00 +13°C° 0 mm 0 mps 630 mmHg 76%
08:00 +14°C° 0 mm 0 mps 630 mmHg 68%
09:00 +16°C° 0 mm 0 mps 631 mmHg 60%
10:00 +19°C° 0 mm 1 mps 631 mmHg 53%
11:00 +21°C° 0 mm 1 mps 631 mmHg 47%
12:00 +22°C° 0 mm 1 mps 631 mmHg 40%
13:00 +23°C° 0 mm 1 mps 631 mmHg 37%
14:00 +23°C° 0 mm 2 mps 631 mmHg 35%
15:00 +24°C° 0 mm 2 mps 631 mmHg 32%
16:00 +23°C° 0 mm 2 mps 631 mmHg 36%
17:00 +23°C° 0 mm 2 mps 631 mmHg 40%
18:00 +21°C° 0 mm 2 mps 631 mmHg 43%
19:00 +19°C° 0 mm 2 mps 631 mmHg 51%
20:00 +16°C° 0 mm 2 mps 630 mmHg 59%
21:00 +14°C° 0 mm 1 mps 630 mmHg 68%
22:00 +14°C° 0 mm 1 mps 630 mmHg 71%
23:00 +13°C° 0 mm 1 mps 630 mmHg 75%

30 July, Friday

Time Temperature Precipitation Wind Pressure Humidity
00:00 +13°C° 0 mm 1 mps 630 mmHg 78%
01:00 +13°C° 0 mm 1 mps 630 mmHg 81%
02:00 +11°C° 0 mm 0 mps 630 mmHg 83%
03:00 +11°C° 0 mm 0 mps 630 mmHg 85%
04:00 +11°C° 0 mm 0 mps 630 mmHg 83%
05:00 +12°C° 0 mm 0 mps 631 mmHg 80%
06:00 +13°C° 0 mm 0 mps 631 mmHg 78%
07:00 +14°C° 0 mm 0 mps 631 mmHg 70%
08:00 +16°C° 0 mm 0 mps 631 mmHg 62%
09:00 +18°C° 0 mm 0 mps 632 mmHg 54%
10:00 +21°C° 0.1 mm 1 mps 632 mmHg 49%
11:00 +22°C° 0.1 mm 1 mps 632 mmHg 44%
12:00 +23°C° 0.1 mm 1 mps 632 mmHg 39%
13:00 +23°C° 0.1 mm 2 mps 632 mmHg 40%
14:00 +23°C° 0.1 mm 2 mps 632 mmHg 42%
15:00 +23°C° 0.1 mm 2 mps 632 mmHg 44%
16:00 +21°C° 0.3 mm 2 mps 632 mmHg 50%
17:00 +20°C° 0.3 mm 2 mps 632 mmHg 56%
18:00 +20°C° 0.3 mm 1 mps 632 mmHg 63%
19:00 +18°C° 0.4 mm 1 mps 632 mmHg 71%
20:00 +16°C° 0.4 mm 1 mps 632 mmHg 79%
21:00 +14°C° 0.4 mm 1 mps 633 mmHg 87%
22:00 +14°C° 0 mm 1 mps 633 mmHg 86%
23:00 +14°C° 0 mm 1 mps 632 mmHg 86%
Show more